www.pogodaiklimat.ru

Погода и климат >> Архив погоды >> Таиланд >> Аюттхая


ПОГОДА в Аюттхая

  • Прогноз погоды в Аюттхая
  • Монитор погоды в Аюттхая

АРХИВ ПОГОДЫ в Аюттхая

Время (UTC), дата Ветер
(напр.,м/с)
 
Видим.   Явления Облачность Т
(С)
Тd
(С)
f
(%)
Тe
(С)
Тes
(С)
Комфортность P
(гПа)
Po
(гПа)
Тmin
(С)
Tmax
(С)
R
(мм)
R24
(мм)
S
(см)
06 14.09 С 2 8000 м дымка 8/4 600 м
[Sc Ac As Cs]
+31.8 +25.6 70 +47 +55 опасность
перегрева
1006.6 1005.5
09 14.09 В 4 8000 м дымка 10/4 600 м
[Sc Ac und Cs]
+29.7 +25.6 79 +44 +45 опасность
перегрева
1004.4 1003.3
12 14.09 штиль 0 8000 м дымка 10/4 600 м
[Sc Ac As Cs]
+28.1 +24.8 82 +40 +40 очень
душно
1005.7 1004.6 +32.5
15 14.09 ЮВ 4 6000 м дымка 9/4 600 м
[Sc Ac As Cs]
+27.0 +24.1 84 +37 +37 очень
душно
1008.4 1007.3
18 14.09 ЮЗ 6 6000 м дымка 10/4 600 м
[Sc Ac As Cs]
+26.7 +23.9 85 +37 +37 очень
душно
1007.7 1006.6
21 14.09 штиль 0 6000 м дымка 10/3 600 м
[Sc Ac As Cs]
+26.2 +23.6 86 +36 +36 очень
душно
1007.4 1006.3
00 15.09 штиль 0 8000 м дымка 10/4 600 м
[Sc Ac As Cs]
+25.5 +24.6 95 +36 +36 очень
душно
1007.6 1006.5 +25.0
03 15.09 С 4 9000 м дымка 4/1 600 м
[Cu med, cong Cs]
+31.5 +25.4 70 +46 +54 опасность
перегрева
1009.1 1008.0
06 15.09 С 3 9000 м дымка 6/3 600 м
[Cu med, cong Ac lent Cs]
+33.4 +26.0 65 +49 +58 опасность
перегрева
1005.8 1004.7
09 15.09 З 3 8000 м дымка {дождь} 8/1 600 м
[Cb calv Ac lent Cs]
+28.4 +25.0 82 +41 +44 опасность
перегрева
1005.3 1004.2 4
12 15.09 штиль 0 8000 м дымка {дождь} 8/3 600 м
[Sc Ac lent Cs]
+28.6 +25.6 84 +42 +42 опасность
перегрева
1005.3 1004.2 +35.0 4
15 15.09 Ю 5 8000 м дымка 8/3 600 м
[Sc Ac As Cs]
+28.6 +25.8 85 +43 +43 опасность
перегрева
1007.7 1006.6
18 15.09 штиль 0 8000 м дымка 8/3 600 м
[Sc Ac As Cs]
+27.5 +25.7 90 +41 +41 опасность
перегрева
1007.2 1006.1
21 15.09 штиль 0 8000 м дымка 9/3 600 м
[Sc Ac As Cs]
+26.3 +24.7 91 +37 +37 очень
душно
1006.3 1005.1
00 16.09 штиль 0 9000 м дымка 3/1 600 м
[Cu hum Ac und Cs]
+26.3 +23.7 86 +36 +37 очень
душно
1007.3 1006.1 +25.0
03 16.09 штиль 0 9000 м дымка 3/1 600 м
[Cu hum Cs]
+31.0 +25.2 71 +45 +61 опасность
перегрева
1008.5 1007.4
06 16.09 СЗ 2 9000 м мгла 8/4 600 м
[Cu med, cong Ac As Cs]
+33.7 +25.4 62 +48 +56 опасность
перегрева
1006.1 1005.0
09 16.09 штиль 0 7000 м в посл. час гроза 10/5 600 м
[Cb cap Ac As Cs]
+27.7 +25.6 88 +41 +43 опасность
перегрева
1004.6 1003.5 14
12 16.09 Ю 3 8000 м дымка {гроза} 9/3 600 м
[Sc Ac As Cs]
+27.6 +25.6 89 +41 +41 опасность
перегрева
1005.6 1004.5 +34.0 14
15 16.09 штиль 0 6000 м слаб. дождь 10/4 600 м
[Cu Sc Ac As]
+26.0 +24.6 92 +37 +37 очень
душно
1008.4 1007.3 1
18 16.09 штиль 0 7000 м дымка {дождь} 10/4 600 м
[Sc Ac As Cs]
+26.2 +24.9 93 +37 +37 очень
душно
1007.7 1006.6 2
21 16.09 штиль 0 7000 м дымка 10/4 600 м
[Sc Ac As Cs]
+25.8 +24.5 93 +36 +36 очень
душно
1007.1 1006.0
00 17.09 штиль 0 6000 м дымка 8/3 600 м
[Sc Ac lent Cs]
+25.9 +24.6 93 +37 +37 очень
душно
1007.7 1006.6 +24.9
03 17.09 СВ 3 8000 м дымка 6/3 600 м
[Cu med, cong Ac lent Cs]
+30.4 +25.8 76 +45 +51 опасность
перегрева
1008.8 1007.7
06 17.09 СВ 2 10 км 6/3 600 м
[Cu med, cong Ac lent Cs]
+33.2 +25.2 63 +47 +58 опасность
перегрева
1006.8 1005.7
09 17.09 В 17 6000 м гроза, ливневой дождь 10/5 600 м
[Cb cap Ac As Cs]
+28.2 +25.1 83 +41 +41 опасность
перегрева
1004.5 1003.4 0.0
12 17.09 СВ 2 7000 м дымка {гроза} 8/3 600 м
[Sc Ac lent Cs]
+27.5 +25.4 88 +40 +40 очень
душно
1005.7 1004.6 +34.5 0.0
15 17.09 С 4 6000 м дымка {дождь} 10/5 600 м
[Sc Ac As Cs]
+27.0 +25.1 89 +39 +39 очень
душно
1009.5 1008.4 0.8
18 17.09 штиль 0 6000 м дымка {дождь} 10/4 600 м
[Sc Ac As Cs]
+26.4 +24.7 90 +37 +37 очень
душно
1008.4 1007.3 0.8
21 17.09 штиль 0 6000 м дымка 10/3 600 м
[Sc Ac As Cs]
+26.1 +24.5 91 +37 +37 очень
душно
1007.6 1006.5
00 18.09 В 3 7000 м дымка 6/0
[Ac lent Cs]
+26.0 +24.8 93 +37 +37 очень
душно
1008.8 1007.7 +25.3
03 18.09 штиль 0 9000 м дымка 3/1 600 м
[Cu hum Cs]
+31.1 +24.5 68 +44 +60 опасность
перегрева
1010.9 1009.8
06 18.09 Ю 3 8000 м дымка 8/3 600 м
[Cu med, cong Ac lent Cs]
+33.4 +26.6 68 +51 +58 опасность
перегрева
1008.7 1007.6
09 18.09 С 4 8000 м мгла 6/1 600 м
[Cu med, cong Ac lent Cs]
+34.7 +26.1 61 +51 +53 опасность
перегрева
1007.2 1006.1
12 18.09 ЮЗ 2 8000 м дымка 8/3 600 м
[Sc Ac lent Cs]
+31.0 +27.4 81 +49 +49 опасность
перегрева
1007.8 1006.7 +35.0
15 18.09 ЮВ 3 8000 м дымка 6/3 600 м
[Sc Ac lent Cs]
+29.4 +26.9 86 +46 +46 опасность
перегрева
1007.5 1006.4
18 18.09 Ю 4 8000 м дымка 6/3 600 м
[Sc Ac lent Cs]
+27.5 +25.5 89 +40 +40 очень
душно
1008.8 1007.7
21 18.09 штиль 0 7000 м дымка 8/3 600 м
[Sc Ac lent Cs]
+26.7 +25.0 90 +38 +38 очень
душно
1009.2 1008.1
00 19.09 штиль 0 8000 м дымка 10/3 600 м
[Sc Ac As Cs]
+26.0 +24.6 92 +37 +37 очень
душно
1009.8 1008.7 +25.0
03 19.09 ЮЗ 2 5000 м слаб. дождь 10/6 600 м
[Cu Sc Ac As]
+26.8 +24.6 88 +38 +40 очень
душно
1011.5 1010.3 3
06 19.09 штиль 0 8000 м дымка {дождь} 9/3 600 м
[Sc Ac lent Cs]
+28.5 +25.2 82 +41 +52 опасность
перегрева
1009.5 1008.4 0.4
09 19.09 штиль 0 6000 м в посл. час дождь 10/6 600 м
[Cu Sc Ac As]
+28.7 +26.0 85 +43 +44 опасность
перегрева
1007.0 1005.9 0.1
12 19.09 штиль 0 6000 м дымка {дождь} 8/3 600 м
[Sc Ac As Cs]
+27.8 +25.7 88 +41 +41 опасность
перегрева
1008.2 1007.1 +29.2 3
15 19.09 ЮВ 3 7000 м дымка 8/3 600 м
[Sc Ac lent Cs]
+26.8 +25.5 93 +39 +39 очень
душно
1010.0 1008.9
18 19.09 штиль 0 7000 м дымка 8/3 600 м
[Sc Ac lent Cs]
+26.4 +25.1 93 +38 +38 очень
душно
1009.6 1008.5
21 19.09 штиль 0 5000 м слаб. дождь 10/4 600 м
[Cu Sc Ac As]
+25.8 +24.8 94 +37 +37 очень
душно
1009.1 1008.0 3
00 20.09 штиль 0 2000 м дымка {дождь} 10/5 600 м
[Sc Ac As Cs]
+25.7 +24.7 94 +36 +36 очень
душно
1009.4 1008.3 +24.7 0.1
03 20.09 штиль 0 8000 м дымка 10/5 600 м
[Sc Ac As Cs]
+28.0 +25.6 87 +41 +46 опасность
перегрева
1010.3 1009.2
06 20.09 В 1 8000 м дымка 9/4 600 м
[Sc Ac As Cs]
+31.0 +25.7 73 +46 +54 опасность
перегрева
1007.7 1006.6
09 20.09 С 4 8000 м дымка 10/5 600 м
[Sc Ac As Cs]
+30.2 +25.2 75 +44 +45 опасность
перегрева
1005.0 1003.9
12 20.09 штиль 0 6000 м дымка 10/4 600 м
[Sc Ac As Cs]
+28.6 +25.6 84 +42 +42 опасность
перегрева
1006.6 1005.5 +32.5
15 20.09 Ю 4 6000 м дымка 10/5 600 м
[Sc Ac As Cs]
+28.2 +25.6 86 +42 +42 опасность
перегрева
1009.5 1008.4
18 20.09 ЮЗ 3 6000 м дымка 10/5 600 м
[Sc Ac As Cs]
+27.5 +25.2 87 +40 +40 очень
душно
1008.8 1007.7
21 20.09 В 3 6000 м дымка 10/4 600 м
[Sc Ac As Cs]
+27.0 +24.8 88 +39 +39 очень
душно
1007.7 1006.6
00 21.09 штиль 0 8000 м дымка 10/4 600 м
[Sc Ac As Cs]
+26.5 +25.2 93 +38 +39 очень
душно
1008.4 1007.3 +25.8
03 21.09 СЗ 5 1000 м слаб. дождь 10/5 600 м
[Sc Ac As]
+26.6 +25.3 93 +39 +40 очень
душно
1010.2 1009.1 0.9

 

Местоположение метеостанции Аюттхая (Таиланд): широта 14.52 долгота 100.72 высота над уровнем моря 10 м.

В архиве по умолчанию представлена погода в Аюттхая за последнюю неделю. Архивные данные за месяц целиком и за предыдущие месяцы, начиная с января 2011 года, Вы можете получить, выбрав интересующий диапазон дат из раскрывающегося списка и нажав кнопку "Ввод!".


*Определитесь, кто Вы:
робот инопланетянин человек

Внимание! Время в таблицах - всемирное. Для получения местного времени необходимо прибавить поправку, которая равна 7 ч.

Смотрите также архив погоды в соседних городах и на ближайших метеорологических станциях:

Погода в Сарабури (Таиланд) (22 км)
Погода в Лопбури (Таиланд) (33 км)
Погода в Патхумтхани (Таиланд) (48 км)
Погода в Суфанбури (Таиланд) (64 км)
Погода в Лаем-Чабанге (Таиланд) (65 км)
Погода в Пакчонг Агромете (Таиланд) (66 км)
Погода в Дон Муанг (Таиланд) (68 км)
Погода в Прачинбури (Таиланд) (87 км)
Погода в Бангкоке (Таиланд) (90 км)
Погода в Чайнат Агромете (Таиланд) (91 км)

Пояснения к столбцам:

Ветер - указаны скорость ветра в м/с - средняя за 10 мин, порывы в срок и между сроками (в фигурных скобках) и направление, откуда дует ветер: С - северный, СВ - северо-восточный, В - восточный, ЮВ - юго-восточный, Ю - южный, ЮЗ - юго-западный, З - западный, СЗ - северо-западный.
Видимость - горизонтальная дальность видимости в метрах или километрах. При видимости от 1 до 10 км при отсутствии осадков обычно наблюдается дымка, при ухудшении видимости до 1 км и менее - туман. В сухую погоду видимость может ухудшаться дымом, пылью или мглою.
Явления - указаны атмосферные явления, наблюдавшиеся в срок или в последний час перед сроком; фигурными скобками обозначены явления, наблюдавшиеся между сроками (за 1-3 часа до срока); квадратными скобками обозначены град или гололедные отложения с указанием их диаметра в мм.
Облачность - указаны через наклонную черту общая и нижняя облачность в баллах и высота нижней границы облаков в метрах; квадратными скобками обозначены формы облаков: Ci - перистые, Cs - перисто-слоистые, Cc - перисто-кучевые, Ac - высококучевые, As - высокослоистые, Sc - слоисто-кучевые, Ns - слоисто-дождевые, Cu - кучевые, Cb - кучево-дождевые. Подробнее классификацию облаков см. в Атласе облаков (PDF).
T - Температура воздуха - температура, измеренная на высоте 2 м над землей.
Td - Температура точки росы - температура, при понижении до которой содержащийся в воздухе водяной пар достигнет насыщения.
f - Относительная влажность воздуха - влажноcть воздуха, измеренная на высоте 2 м над землей.
Te - Эффективная температура - температура, которую ощущает одетый по сезону человек в тени. Характеристика душности погоды. При расчете учитывается влияние влажности воздуха и скорости ветра на теплоощущения человека.
Tes - Эффективная температура на солнце - температура, которую ощущает человек, с поправкой на солнечный нагрев. Характеристика знойности погоды. Зависит от высоты солнца над горизонтом, облачности и скорости ветра. Ночью, в пасмурную погоду, а также при ветре 12 м/с и более поправка равна нулю.
P - Атмосферное давление - приведенное к уровню моря атмосферное давление.
Po - Атмосферное давление - измеренное на уровне метеостанции атмосферное давление.
Tmin - Минимальная температура - минимум температуры воздуха на высоте 2 м над землей.
Tmax - Максимальная температура - максимум температуры воздуха на высоте 2 м над землей.
R - Количество осадков - Количество выпавших осадков за период времени, мм. При наведении курсора мыши на число - период времени, за который выпало указанное количество осадков.
R24 - Количество осадков - Количество выпавших осадков за 24 часа, мм.
S - Снежный покров - Высота снежного покрова, см. При наведении курсора мыши на число - состояние снежного покрова и степень покрытия местности в баллах.